Regional Weather Roundup
Issued by NWS Cleveland, OH

Home | Current Version | Previous Version | Graphics & Text | Print | Product List | Glossary On
Versions: 1 2 3 4 5 6 7 8 9 10 11 12 13 14 15 16 17 18 19 20 21 22 23 24 25 26 27 28 29 30 31 32 33 34 35 36 37 38 39 40 41 42 43 44 45 46 47 48 49 50
000
ASUS41 KCLE 181200
RWRCLE
OHIO REGIONAL WEATHER ROUNDUP
NATIONAL WEATHER SERVICE WILMINGTON, OH
800 AM EDT SAT APR 18 2015

NOTE: "FAIR" INDICATES FEW OR NO CLOUDS BELOW 12,000 FEET WITH NO
SIGNIFICANT WEATHER AND/OR OBSTRUCTIONS TO VISIBILITY.

OHZ001>008-015>018-024>027-034-035-043-044-181300-
   NORTHWEST OHIO

CITY           SKY/WX    TMP DP  RH WIND       PRES   REMARKS
DEFIANCE       SUNNY     50  46  86 CALM      30.06R
FINDLAY        MOSUNNY   51  43  74 CALM      30.05R
TOLEDO EXPRESS MOSUNNY   51  44  77 CALM      30.04R
TOLEDO EXEC    MOSUNNY   51  43  74 S3        30.06R
LIMA           SUNNY     56  42  59 S3        30.06R
$$

OHZ009>014-019>023-028>033-038-089-181300-
   NORTHEAST OHIO

CITY           SKY/WX    TMP DP  RH WIND       PRES   REMARKS
CLE-HOPKINS    MOSUNNY   54  45  71 SW5       30.07R
CLE-LAKEFRONT  MOSUNNY   59  45  59 S5        30.04R
CUY CO. ARPT   PTSUNNY   57  48  72 SW8       30.05R
LORAIN-ELYRIA  MOSUNNY   50  46  86 SW3       30.06R
ASHTABULA      MOSUNNY   52  48  86 S3        30.05R
AKRON-CANTON   MOSUNNY   54  45  71 SW3       30.07R
WOOSTER        NOT AVBL
MANSFIELD      SUNNY     56  45  66 SW5       30.06R
YOUNGSTOWN     PTSUNNY   54  47  77 S6        30.05S
$$

OHZ042-051>053-060>062-070>072-077>081-181300-
  SOUTHWEST OHIO

CITY           SKY/WX    TMP DP  RH WIND       PRES   REMARKS
CINC-COVINGTON MOSUNNY   54  47  77 N3        30.06R
CINC-LUNKEN    SUNNY     49  49 100 CALM      30.07R
HAMILTON       SUNNY     49  47  93 CALM      30.07R
DAYTON         NOT AVBL
WRIGHT-PAT AFB SUNNY     48  46  91 CALM      30.07R
DAYTON GENERAL SUNNY     51  46  83 NE3       30.06R
WILMINGTON     SUNNY     51  45  79 CALM      30.07R
$$

OHZ036-037-039>041-045>050-054>059-063>069-073>076-082>088-181300-
  CENTRAL AND SOUTHEAST OHIO

CITY           SKY/WX    TMP DP  RH WIND       PRES   REMARKS
COLUMBUS       MOSUNNY   50  45  83 CALM      30.06R
OSU AIRPORT    SUNNY     51  45  79 E3        30.06S
BOLTON FIELD   SUNNY     48  46  93 CALM      30.06F
RICKENBACK AFB NOT AVBL
NEWARK         SUNNY     47  44  90 CALM      30.07R
MARION         MOSUNNY   50  45  83 CALM      30.07R
LANCASTER      SUNNY     48  45  89 CALM      30.07S
ZANESVILLE     SUNNY     47  44  90 CALM      30.07R FOG
NEW PHILLY     SUNNY     48  45  89 CALM      30.08R FOG
$$



USA.gov is the U.S. government's official web portal to all federal, state and local government web resources and services.